Terminal Aerodrome Forecast
Issued by NWS

Home | Current Version | Previous Version | Text Only | Print | Product List | Glossary On
Versions: 1 2 3 4 5 6 7 8 9 10 11 12 13 14 15 16 17 18 19 20 21 22 23 24 25 26
000
FTUS45 KGJT 231737
TAFCNY
TAF
KCNY 231737Z 2318/2418 30010G20KT P6SM SCT070 SCT150
     FM240000 29006KT P6SM SCT100
     FM241600 32010KT P6SM SCT120 BKN250=

USA.gov is the U.S. government's official web portal to all federal, state and local government web resources and services.